Torna al catalogo

STARLINK-37824

AttivoComunicazioniVLEO
NORAD 69956·PAYLOAD·🇺🇸 United States

Lanciato Jul 9, 2026 da Cape Canaveral Space Force Station

Loading…

Prossimi Passaggi (prossime 24 ore)

TLE

AggiornatoSource: CelesTrak SupGP

Epoca: Sep 14, 2026, 23:04 UTC

1 69956C 26157P   26257.96159722 -.00005712  00000+0 -16875-3 0  2572
2 69956  53.1597 359.3341 0001275  73.9586  28.3415 15.34394385    17

Traccia STARLINK-37824 in tempo reale con AllMySat

Download on the App Store